Location: Strawberry
(45.6646°N, 111.9596°W)
Time: 18:19:29
(UTC+00:00)

SR - Pass Details

Date: 05 October 2022
Orbit: 577 x 874 km, 66.7° (Epoch: 05 December)

Event Time Altitude Azimuth Distance (km) Brightness Sun altitude
Rises 11:52:03 0° 329° (NNW) 3,358 ? -18.1°
Reaches altitude 10° 11:54:39 10° 334° (NNW) 2,381 ? -17.6°
Maximum altitude 12:00:00 54° 51° (NE) 914 ? -16.7°
Drops below altitude 10° 12:04:52 10° 129° (SE) 2,172 ? -15.9°
Sets 12:07:08 0° 134° (SE) 3,039 ? -15.5°
